AVA9264 SKPE-SKRG

Flight info

Callsign AVA9264
Flight time N/A
Altitude 17000
Route NEBOV2B MATRO W3 ISVON ISVON4A
Aircraft A320/M-SDE3FGHIRWY/LB1

Departure

Time N/A
Airport Matecaña International Airport (SKPE)

Arrival

Time 2026-05-06 14:06
Airport Jose Maria Córdova International Airport (SKRG)
Time Latitude Longitude Altitude Speed Heading
2026-05-06 13:59 5.82798 -75.42087 12335 ft 256 kts
2026-05-06 13:59 5.84567 -75.42106 12111 ft 253 kts
2026-05-06 13:59 5.86326 -75.42118 11960 ft 245 kts
2026-05-06 14:00 5.87981 -75.42128 11945 ft 238 kts
2026-05-06 14:00 5.89637 -75.42138 11850 ft 236 kts
2026-05-06 14:00 5.91254 -75.42149 11552 ft 230 kts
2026-05-06 14:00 5.92833 -75.42160 11243 ft 225 kts
2026-05-06 14:01 5.94379 -75.42170 10962 ft 219 kts
2026-05-06 14:01 5.95885 -75.42179 10662 ft 213 kts
2026-05-06 14:01 5.97357 -75.42188 10387 ft 210 kts
2026-05-06 14:01 5.98799 -75.42197 10108 ft 206 kts 360°
2026-05-06 14:02 6.00227 -75.42207 9835 ft 203 kts
2026-05-06 14:02 6.01609 -75.42216 9578 ft 191 kts
2026-05-06 14:02 6.02881 -75.42225 9328 ft 176 kts
2026-05-06 14:02 6.04068 -75.42232 9089 ft 167 kts
2026-05-06 14:03 6.05216 -75.42240 8880 ft 162 kts 360°
2026-05-06 14:03 6.06336 -75.42247 8667 ft 160 kts
2026-05-06 14:03 6.07442 -75.42252 8459 ft 158 kts 359°
2026-05-06 14:03 6.08537 -75.42260 8261 ft 156 kts 359°
2026-05-06 14:04 6.09622 -75.42269 8049 ft 156 kts 359°
2026-05-06 14:04 6.10707 -75.42275 7825 ft 156 kts 360°
2026-05-06 14:04 6.11787 -75.42281 7604 ft 155 kts 359°
2026-05-06 14:04 6.12858 -75.42289 7399 ft 154 kts
2026-05-06 14:05 6.13925 -75.42296 7217 ft 153 kts 360°
2026-05-06 14:05 6.14986 -75.42306 7020 ft 152 kts 359°
2026-05-06 14:05 6.15967 -75.42310 6981 ft 120 kts 360°
2026-05-06 14:05 6.16627 -75.42314 7003 ft 70 kts 359°
2026-05-06 14:06 6.16917 -75.42329 7016 ft 28 kts 347°
2026-05-06 14:06 6.17087 -75.42405 7017 ft 24 kts 330°
2026-05-06 14:06 6.17190 -75.42485 7017 ft 16 kts 284°
2026-05-06 14:06 6.17186 -75.42597 7018 ft 12 kts 250°
2026-05-06 14:07 6.17126 -75.42615 7020 ft 8 kts 178°
2026-05-06 14:07 6.17101 -75.42617 7016 ft 0 kts 209°
2026-05-06 14:07 6.17099 -75.42625 7016 ft 4 kts 248°
2026-05-06 14:07 6.17100 -75.42651 7016 ft 5 kts 278°
2026-05-06 14:08 6.17105 -75.42679 7016 ft 3 kts 280°
2026-05-06 14:08 6.17106 -75.42685 7016 ft 0 kts 280°